EHI
0 0 0 0 0 0 0 0 0 0 0 0 0 0 0 0 0 0 1 2 5 9 10 9 8 8 10 13 13 13 12 10 9 9 8 7 6 5 2 1 0 0 1 0 0 0 0 0 0
0 0 0 0 0 0 0 0 0 0 0 0 0 0 0 0 0 0 1 3 7 10 11 9 9 8 9 11 13 13 11 10 9 9 8 6 4 3 2 1 0 0 1 0 0 0 0 0 0
0 0 0 0 0 0 0 0 0 0 0 0 0 0 0 0 0 0 1 4 9 12 11 9 9 8 8 10 11 11 11 10 8 8 7 4 2 2 2 1 0 0 1 0 0 0 0 0 0
0 0 0 0 0 0 0 0 0 0 0 0 0 0 0 1 1 1 3 7 11 13 11 9 10 10 8 8 8 8 9 9 8 8 6 4 2 2 2 2 1 1 1 0 0 0 0 0 0
0 0 0 0 0 0 0 0 0 0 0 0 0 0 1 2 3 4 7 10 12 13 12 11 11 10 7 5 6 7 7 7 8 8 7 4 3 2 2 2 1 1 0 0 0 1 1 1 0
0 0 0 0 0 0 0 0 0 0 0 0 0 1 2 3 4 7 10 12 13 13 13 12 11 9 6 4 5 6 6 6 7 7 6 4 3 3 2 2 1 1 0 0 1 2 2 1 0
0 0 0 0 0 0 0 0 0 0 0 0 0 1 2 3 5 8 12 14 14 14 12 11 10 9 7 5 4 5 6 6 6 6 5 4 3 3 2 2 1 1 1 1 2 2 1 0 0
0 0 0 0 0 0 0 0 0 0 0 0 0 0 1 3 6 10 13 13 14 13 11 10 10 9 8 6 4 4 3 4 4 5 4 2 2 2 2 1 1 2 2 3 3 2 1 0 0
0 0 0 0 0 0 0 0 0 0 0 0 0 0 2 5 9 12 12 12 11 11 10 10 10 10 9 6 4 3 1 1 1 2 1 1 1 1 0 0 0 1 3 4 4 2 1 1 0
0 0 0 0 0 0 0 0 0 0 0 0 0 1 4 7 9 10 10 9 8 8 8 9 9 10 9 6 4 3 1 0 0 0 0 0 0 0 0 0 0 1 2 3 3 2 1 1 0
0 0 0 0 0 0 0 0 0 0 0 0 0 1 4 6 7 7 6 6 6 6 7 8 9 9 8 6 4 3 2 1 0 0 0 0 0 0 0 0 0 0 1 1 1 1 0 0 0
0 0 0 0 0 0 0 0 0 0 0 0 0 1 2 4 5 5 5 6 7 6 6 7 8 8 7 6 5 4 2 1 0 0 0 0 0 0 0 0 0 0 0 0 0 0 0 0 0
0 0 0 0 0 0 0 0 0 0 0 0 0 0 1 2 3 4 5 6 6 5 5 6 7 7 7 6 6 4 2 1 0 0 0 0 0 0 0 0 0 0 0 0 0 0 0 0 0
0 0 0 0 0 0 0 0 0 0 0 0 0 0 1 2 3 3 4 5 5 4 4 5 6 6 6 6 6 4 2 1 0 0 0 0 0 0 0 0 0 0 0 0 0 0 0 0 0
0 0 0 0 0 0 0 0 0 0 0 0 0 0 1 2 3 2 3 4 4 3 3 4 5 6 6 6 6 4 2 1 0 0 0 0 0 0 0 0 0 0 0 0 0 0 0 0 0
0 0 0 0 0 0 0 0 0 0 0 0 0 0 2 3 2 1 2 3 4 3 3 2 3 5 6 6 6 4 2 1 0 0 0 0 0 0 0 0 0 0 0 0 0 0 0 0 0
0 0 0 0 0 0 0 0 0 0 0 0 0 0 2 3 3 1 1 3 3 3 3 1 1 3 4 6 6 5 3 1 0 0 0 0 0 0 0 0 0 0 0 0 0 0 0 0 0
0 0 0 0 0 0 0 0 0 0 0 0 0 1 2 3 3 2 2 3 3 3 3 2 1 1 3 5 6 6 4 2 0 0 0 0 0 0 0 0 0 0 0 0 0 0 0 0 0
0 0 0 0 0 0 0 0 0 0 0 0 1 1 2 2 3 3 3 3 3 3 3 2 1 0 1 3 4 5 5 3 1 0 0 0 0 0 0 0 0 0 0 0 0 0 0 0 0
0 0 0 0 0 0 0 0 0 0 0 0 0 0 1 2 3 3 3 3 3 3 3 2 1 0 0 1 2 4 4 3 1 0 0 0 0 0 0 0 0 0 0 0 0 0 0 0 0
0 0 0 0 0 0 0 0 0 0 0 0 0 0 0 1 3 3 3 3 2 2 2 1 0 0 0 0 1 2 3 2 1 0 0 0 0 0 0 0 0 0 0 0 0 0 0 0 0
0 0 0 0 0 0 0 0 0 0 0 0 0 0 0 1 2 3 3 1 1 1 1 0 0 0 0 0 0 1 2 1 0 0 0 0 0 0 0 0 0 0 0 0 0 0 0 0 0
0 0 0 0 0 0 0 0 0 0 0 0 0 0 0 0 1 2 2 1 0 0 0 0 0 0 0 0 0 0 0 0 0 0 0 0 0 0 0 0 0 0 0 0 0 0 0 0 0
0 0 0 0 0 0 0 0 0 0 0 0 0 0 0 0 0 1 1 0 0 0 0 0 0 0 0 0 0 0 0 0 0 0 0 0 0 0 0 0 0 0 0 0 0 0 0 0 0
0 0 0 0 0 0 0 0 0 0 0 0 0 0 0 0 0 0 0 0 0 0 0 0 0 0 0 0 0 0 0 0 0 0 0 0 0 0 0 0 0 0 0 0 0 0 0 0 0
0 0 0 0 0 0 0 0 0 0 0 0 0 0 0 0 0 0 0 0 0 0 0 0 0 0 0 0 0 0 0 0 0 0 0 0 0 0 0 0 0 0 0 0 0 0 0 0 0
0 0 0 0 0 0 0 0 0 0 0 0 0 0 0 0 0 0 0 0 0 0 0 0 0 0 0 0 0 0 0 0 0 0 0 0 0 0 0 0 0 0 0 0 0 0 0 0 0
0 0 0 0 0 0 0 0 0 0 0 0 0 0 0 0 0 0 0 0 0 0 0 0 0 0 0 0 0 0 0 0 0 0 0 0 0 0 0 0 0 0 0 0 0 0 0 0 0
0 0 0 0 0 0 0 0 0 0 0 0 0 0 0 0 0 0 0 0 0 0 0 0 0 0 0 0 0 0 0 0 0 0 0 0 0 0 0 0 0 0 0 0 0 0 0 0 0
0 0 0 0 0 0 0 0 0 0 0 0 0 0 0 0 0 0 0 0 0 0 0 0 0 0 0 0 0 0 0 0 0 0 0 0 0 0 0 0 0 0 0 0 0 0 0 0 0
Wind_Speed
8 4 3 4 7 5 2 2 1 1 1 1 2 4 5 4 3 2 2 3 4 3 3 3 6 8 8 8 9 8 9 8 8 8 9 9 10 10 10 10 10 11 11 11 12 12 12 12 12
3 2 5 6 5 2 3 2 2 1 1 1 3 3 4 3 2 2 3 5 4 3 3 4 7 8 9 9 8 9 8 8 8 8 8 9 9 10 10 10 10 10 10 11 11 12 12 12 12
2 4 5 5 3 6 4 1 2 0 2 2 3 3 3 2 2 1 3 2 3 4 4 4 7 8 9 9 9 9 9 8 8 8 8 8 8 9 9 9 9 9 9 10 11 11 11 11 11
3 5 6 5 3 5 2 1 1 1 2 4 3 3 3 3 2 2 2 2 4 4 5 5 8 8 9 9 9 10 9 8 8 8 8 8 8 8 8 8 8 8 8 9 10 10 10 10 10
5 5 4 1 4 3 1 1 2 2 1 2 2 3 2 3 4 3 3 3 4 4 5 5 9 9 9 9 9 9 9 9 8 8 8 8 7 7 7 8 8 8 8 8 9 9 9 10 10
5 5 3 4 4 2 0 1 1 2 1 2 3 3 2 3 5 3 3 4 4 5 5 5 8 10 10 9 9 9 9 10 9 8 7 7 7 6 7 7 7 8 8 8 8 9 9 9 9
5 4 3 3 2 1 1 1 2 2 1 1 1 3 1 3 4 3 3 4 5 5 5 5 5 6 8 10 10 9 9 9 9 8 8 7 7 6 6 6 6 7 7 7 8 8 8 8 8
4 5 2 2 2 2 1 1 1 2 1 1 2 4 1 1 2 3 4 4 5 6 6 6 6 6 5 5 8 10 9 9 9 9 9 8 6 6 6 5 5 6 7 7 7 7 7 8 8
3 4 2 3 3 2 2 2 1 2 3 2 2 2 1 2 3 4 4 5 5 6 6 6 6 6 6 5 6 7 8 8 8 7 9 7 4 3 4 5 5 5 6 6 6 6 7 7 7
4 3 3 1 1 2 1 2 1 2 2 2 2 3 3 4 4 5 4 4 4 4 5 5 5 5 5 4 4 3 4 5 5 4 5 4 3 3 4 5 5 5 5 5 5 6 6 5 3
3 2 1 1 1 1 1 2 2 2 1 2 2 2 3 3 4 4 3 2 1 1 3 4 4 4 4 4 3 3 2 3 4 4 4 3 3 2 2 2 3 3 4 2 3 4 3 3 2
3 2 1 1 1 1 0 0 2 0 2 1 3 5 4 4 3 3 2 2 2 2 3 3 4 4 4 3 2 2 2 2 2 3 4 3 2 2 1 1 1 1 1 2 2 2 2 2 2
1 1 1 2 3 2 2 1 1 2 2 1 4 5 4 3 2 1 2 2 2 3 3 3 3 3 3 3 2 3 2 2 2 2 3 3 2 2 1 1 1 1 1 1 1 2 2 2 1
1 1 1 1 1 1 1 3 1 3 0 2 4 4 3 3 2 2 3 3 3 3 3 3 3 3 3 2 2 2 2 2 2 2 2 3 2 1 2 1 0 0 0 0 1 1 1 1 1
1 2 3 2 0 0 1 4 4 3 1 2 3 3 3 2 2 2 1 2 2 2 3 3 2 3 2 2 2 2 1 2 2 2 2 2 2 1 1 1 1 0 0 1 1 1 1 1 1
2 2 2 2 0 0 1 6 3 1 2 3 3 3 3 2 1 1 2 2 2 3 3 3 3 3 2 2 2 2 2 2 2 2 2 2 3 2 1 1 1 1 1 1 1 1 1 1 1
4 1 2 3 0 0 2 6 3 1 3 4 3 3 2 1 1 2 2 2 2 2 3 3 4 3 3 2 2 2 2 2 2 2 2 3 3 3 2 2 2 1 1 1 2 1 2 1 1
2 2 3 3 2 1 4 6 4 2 4 4 3 3 2 1 1 1 2 2 2 2 2 3 4 3 3 2 1 1 2 2 2 2 3 3 3 3 2 2 2 1 1 1 2 1 1 1 1
2 2 4 4 2 2 5 7 6 2 3 3 3 2 2 2 1 1 2 2 3 3 3 3 4 4 3 2 2 1 2 3 3 3 4 4 4 3 2 2 2 2 2 2 2 2 2 2 1
2 3 4 4 2 3 4 6 4 2 4 3 3 2 1 1 1 1 2 2 3 3 3 3 3 4 3 2 2 1 2 2 2 3 3 4 4 4 3 3 2 2 2 2 2 2 2 2 2
2 3 4 6 5 2 3 5 2 1 1 1 1 0 0 1 1 2 2 2 2 3 4 4 3 4 4 3 2 2 2 2 2 3 3 4 4 4 4 4 3 3 3 3 3 3 4 3 2
4 3 5 5 3 3 1 4 4 2 1 1 1 1 1 1 2 2 3 3 3 3 3 3 4 4 4 3 2 2 2 3 4 3 4 5 4 4 4 4 4 3 3 3 3 3 3 4 4
3 3 3 3 2 2 1 2 6 1 2 3 3 2 2 2 2 2 3 3 3 3 3 3 3 4 4 4 3 2 2 3 3 3 4 4 4 4 4 4 3 3 3 3 3 3 3 3 4
2 1 1 1 2 2 2 3 6 2 4 3 3 3 2 2 2 2 3 3 4 4 3 3 3 4 4 4 4 3 3 4 4 4 4 4 4 4 4 4 3 3 3 3 4 4 5 4 4
2 3 4 5 3 4 1 2 7 3 3 3 4 4 3 2 2 3 4 4 4 5 4 3 3 4 4 4 4 4 4 4 4 5 4 4 4 4 5 4 4 3 4 4 4 4 5 5 6
1 2 3 3 4 5 1 5 6 2 2 2 3 3 2 2 3 3 4 4 4 5 5 4 4 5 4 4 5 4 4 3 3 4 4 4 4 5 5 4 4 4 4 5 4 4 4 4 5
2 1 1 3 0 3 5 6 7 1 2 2 2 2 3 3 3 4 4 4 4 4 4 4 4 5 5 5 5 4 4 4 4 5 4 4 4 5 5 5 4 4 4 4 4 3 4 3 4
1 4 3 3 1 4 6 5 5 4 3 2 3 3 4 4 4 5 5 5 4 4 4 4 4 4 5 4 4 4 4 5 4 4 5 5 5 5 5 5 5 4 4 4 4 3 3 3 4
2 2 2 2 2 3 4 8 4 5 4 3 4 4 4 4 5 5 5 5 5 5 4 4 4 5 5 5 4 5 4 5 4 4 5 5 5 5 5 5 5 5 4 4 3 3 3 3 4
2 3 4 3 3 3 3 9 2 2 2 2 4 5 4 5 5 5 5 5 5 5 5 4 4 5 5 5 4 5 5 4 4 5 5 5 5 5 5 5 5 5 4 4 4 4 4 4 4
Wind_Direction
343 2 51 52 59 57 213 243 201 10 72 58 63 95 114 111 118 142 333 20 15 6 353 9 31 40 46 52 58 65 71 76 84 86 89 92 94 94 94 97 96 95 94 94 94 93 91 90 89
341 16 51 60 94 153 248 232 198 197 166 98 55 64 79 73 44 55 5 350 18 22 14 14 42 45 49 51 55 62 68 72 77 80 84 89 91 94 93 92 94 96 97 95 94 95 93 91 91
11 47 75 79 121 190 205 206 200 1 38 66 74 52 78 41 26 36 337 353 34 35 20 16 47 49 51 54 52 56 61 68 72 73 76 83 87 92 93 90 90 92 96 97 96 95 98 96 95
56 47 57 82 195 223 203 192 164 123 27 35 93 75 63 34 13 343 9 47 53 38 25 23 44 51 54 55 52 52 56 63 68 70 71 74 83 89 90 88 88 89 92 99 100 98 100 99 98
55 74 75 98 227 231 233 325 121 115 53 20 84 106 76 17 24 41 62 60 57 39 32 34 44 46 52 54 51 51 54 57 62 66 70 71 76 84 87 88 89 89 91 94 96 101 101 101 101
56 68 108 205 225 246 274 359 112 86 84 39 78 106 119 23 31 44 55 57 51 48 40 43 43 43 43 47 47 48 52 54 52 56 62 65 68 76 82 89 93 93 91 95 94 96 103 105 102
97 100 157 180 193 244 260 80 119 134 107 35 106 108 116 24 18 51 58 61 51 49 42 36 37 39 39 38 37 42 48 50 50 48 51 54 58 66 79 80 91 96 92 87 90 92 100 107 104
108 103 129 184 180 225 344 67 75 103 147 45 88 120 152 311 16 74 70 63 58 52 42 34 28 28 27 30 35 36 38 43 46 45 41 42 46 53 67 66 76 91 94 88 86 88 91 99 103
78 86 188 202 186 200 12 47 26 36 87 53 51 80 77 121 90 86 69 51 45 43 37 34 29 26 20 23 34 35 36 36 41 43 40 38 31 34 46 47 59 76 93 93 90 89 86 83 92
70 145 205 209 158 139 44 46 24 80 58 46 39 34 79 99 93 87 78 65 44 32 28 30 28 26 23 26 30 32 31 28 24 22 24 22 20 21 35 43 53 62 78 89 90 88 85 73 67
74 152 151 29 29 96 76 30 9 127 164 205 171 117 115 101 90 86 77 78 68 50 35 25 26 27 28 24 26 26 25 22 21 19 16 17 19 23 28 32 43 44 57 64 69 68 56 59 63
84 36 66 354 350 19 29 56 20 359 253 269 138 135 133 125 112 99 85 46 36 42 28 21 22 26 27 24 23 26 21 19 13 4 8 15 16 10 18 20 28 44 42 59 64 67 65 61 63
83 73 37 39 52 43 47 349 267 281 308 60 114 116 127 132 123 93 82 63 42 33 18 8 16 24 21 25 18 24 6 2 350 354 358 0 7 357 347 358 14 48 64 76 90 89 86 76 68
100 87 22 359 345 349 74 303 289 260 337 89 117 129 139 138 125 78 44 35 25 13 2 355 13 18 20 21 9 6 355 345 339 339 338 347 355 343 338 314 275 48 96 116 140 145 126 114 99
89 47 2 349 315 247 74 300 245 232 117 124 147 152 152 127 108 91 65 43 18 2 356 356 10 12 11 13 2 359 343 341 326 323 324 334 341 327 333 296 257 230 178 151 131 140 119 130 116
46 52 348 324 26 257 153 263 269 197 166 181 176 166 158 126 94 58 40 39 19 11 2 356 1 2 0 6 355 344 338 336 324 315 310 322 329 326 301 293 261 246 201 170 169 162 150 160 159
34 11 279 300 332 99 191 255 274 261 184 188 175 170 168 139 55 19 20 28 19 16 4 356 353 355 353 354 356 341 333 335 323 317 315 314 314 322 297 289 267 231 209 194 188 193 177 178 181
253 245 261 267 299 252 238 260 277 256 183 184 178 179 173 174 247 347 5 10 12 15 9 4 359 355 350 354 3 354 349 342 330 321 313 313 314 312 313 294 275 238 206 209 189 202 195 177 174
216 227 260 270 278 271 244 264 275 240 182 190 192 191 191 219 243 27 15 7 12 13 9 3 3 353 355 348 340 337 330 328 327 324 326 324 316 305 302 303 279 259 225 218 200 188 189 175 150
231 263 276 293 307 284 268 273 268 219 197 189 186 200 213 284 3 8 6 16 14 358 353 354 353 343 342 333 312 291 301 304 306 315 323 322 319 317 300 303 279 265 256 232 212 189 182 190 171
267 235 261 286 310 292 308 298 274 292 159 99 106 206 204 251 296 323 335 346 352 349 343 341 335 333 332 334 341 345 341 333 329 327 325 324 317 311 307 297 280 256 243 232 227 209 198 193 198
276 258 274 283 295 294 15 290 277 272 272 287 294 305 279 295 307 320 332 329 327 322 331 335 333 332 334 340 340 320 317 310 307 308 307 310 310 307 305 302 290 261 246 237 238 226 218 196 198
260 296 284 278 232 306 329 231 284 341 273 272 277 278 275 273 281 306 313 309 317 323 331 328 339 340 340 337 318 298 292 296 305 310 307 313 312 311 310 306 301 286 261 245 239 245 225 215 207
301 346 350 22 85 276 233 190 278 240 239 270 278 276 279 295 305 316 318 328 334 335 334 334 345 340 343 335 323 315 297 300 306 309 307 313 310 310 314 315 304 293 280 259 249 241 233 224 221
27 54 15 352 349 261 206 207 254 259 242 247 263 271 279 289 307 313 325 328 331 334 330 331 337 331 334 332 324 315 308 298 288 293 295 302 303 303 304 307 305 302 294 279 262 246 242 229 222
238 130 147 230 260 293 313 240 255 261 276 272 265 264 283 300 304 302 303 307 314 320 326 321 319 318 320 319 314 313 309 302 295 292 291 287 286 289 299 299 299 299 296 287 270 254 249 240 226
129 137 149 137 314 289 276 287 299 273 302 312 319 319 295 297 307 306 307 309 311 312 310 308 305 310 311 310 311 307 304 297 293 293 291 290 287 292 297 296 293 293 290 283 274 262 255 250 239
94 142 104 130 213 284 293 275 261 265 268 296 307 297 299 314 314 312 316 315 314 308 303 310 303 298 303 305 303 306 304 298 293 293 293 293 293 295 294 293 293 293 288 284 274 271 270 261 254
107 104 113 128 165 186 274 273 229 216 214 234 268 282 290 301 303 304 308 314 319 318 312 314 311 309 308 305 303 303 303 301 298 293 292 292 293 296 294 292 292 292 289 281 271 271 271 265 269
169 180 159 169 228 196 224 271 285 235 237 234 268 289 296 297 300 303 306 316 318 318 319 317 312 305 299 296 297 295 298 301 300 298 296 293 291 291 292 295 290 287 283 276 269 268 266 257 261